When you browse on this site, cookies collect data to enhance your experience and personalize the content and advertising you see.
Visit our Privacy Policy to learn more. By continuing to use the site, you agree to this use of cookies and data.

Météo par heure à Ario de Rosales

Ce jour, 3 Juillet, Vendredi

Heure Température Précipitation Vent Pression Humidité
00:00 +15°C° 0 mm 1 m/s 610 mmHg 87%
01:00 +15°C° 0 mm 1 m/s 610 mmHg 87%
02:00 +15°C° 0 mm 1 m/s 610 mmHg 86%
03:00 +15°C° 0.1 mm 1 m/s 610 mmHg 87%
04:00 +14°C° 0.1 mm 1 m/s 610 mmHg 88%
05:00 +14°C° 0.1 mm 1 m/s 610 mmHg 89%
06:00 +15°C° 0.1 mm 0 m/s 611 mmHg 84%
07:00 +17°C° 0.1 mm 0 m/s 612 mmHg 79%
08:00 +19°C° 0.1 mm 0 m/s 613 mmHg 75%
09:00 +22°C° 0.7 mm 1 m/s 613 mmHg 73%
10:00 +23°C° 0.7 mm 1 m/s 613 mmHg 71%
11:00 +24°C° 0.7 mm 1 m/s 613 mmHg 69%
12:00 +24°C° 1.4 mm 1 m/s 613 mmHg 68%
13:00 +24°C° 1.4 mm 1 m/s 612 mmHg 67%
14:00 +25°C° 1.4 mm 1 m/s 612 mmHg 65%
15:00 +24°C° 1 mm 1 m/s 611 mmHg 68%
16:00 +23°C° 1 mm 1 m/s 611 mmHg 70%
17:00 +23°C° 1 mm 1 m/s 611 mmHg 73%
18:00 +21°C° 1.9 mm 1 m/s 610 mmHg 77%
19:00 +19°C° 1.9 mm 1 m/s 610 mmHg 82%
20:00 +16°C° 1.9 mm 2 m/s 610 mmHg 87%
21:00 +15°C° 0 mm 1 m/s 610 mmHg 86%
22:00 +15°C° 0 mm 1 m/s 610 mmHg 85%
23:00 +15°C° 0 mm 1 m/s 610 mmHg 84%

Demain, 4 Juillet, Samedi

Heure Température Précipitation Vent Pression Humidité
00:00 +15°C° 0 mm 1 m/s 610 mmHg 84%
01:00 +15°C° 0 mm 1 m/s 610 mmHg 83%
02:00 +15°C° 0 mm 1 m/s 610 mmHg 82%
03:00 +15°C° 0 mm 1 m/s 610 mmHg 83%
04:00 +15°C° 0 mm 1 m/s 610 mmHg 84%
05:00 +14°C° 0 mm 1 m/s 611 mmHg 85%
06:00 +16°C° 0 mm 1 m/s 611 mmHg 82%
07:00 +18°C° 0 mm 1 m/s 612 mmHg 79%
08:00 +20°C° 0 mm 1 m/s 612 mmHg 76%
09:00 +21°C° 0.6 mm 1 m/s 613 mmHg 73%
10:00 +23°C° 0.6 mm 1 m/s 613 mmHg 69%
11:00 +24°C° 0.6 mm 1 m/s 614 mmHg 66%
12:00 +24°C° 1.1 mm 1 m/s 613 mmHg 65%
13:00 +24°C° 1.1 mm 1 m/s 613 mmHg 65%
14:00 +25°C° 1.1 mm 1 m/s 612 mmHg 64%
15:00 +24°C° 0.4 mm 1 m/s 612 mmHg 67%
16:00 +23°C° 0.4 mm 1 m/s 611 mmHg 70%
17:00 +23°C° 0.4 mm 1 m/s 611 mmHg 73%
18:00 +21°C° 0.8 mm 1 m/s 611 mmHg 79%
19:00 +20°C° 0.8 mm 1 m/s 611 mmHg 84%
20:00 +18°C° 0.8 mm 1 m/s 610 mmHg 89%
21:00 +18°C° 0.7 mm 1 m/s 611 mmHg 90%
22:00 +16°C° 0.7 mm 1 m/s 611 mmHg 91%
23:00 +16°C° 0.7 mm 1 m/s 611 mmHg 92%

Après-demain, 5 Juillet, Dimanche

Heure Température Précipitation Vent Pression Humidité
00:00 +16°C° 0.3 mm 1 m/s 610 mmHg 92%
01:00 +15°C° 0.3 mm 0 m/s 610 mmHg 91%
02:00 +14°C° 0.3 mm 0 m/s 610 mmHg 91%
03:00 +14°C° 0 mm 0 m/s 610 mmHg 91%
04:00 +15°C° 0 mm 1 m/s 610 mmHg 91%
05:00 +15°C° 0 mm 1 m/s 610 mmHg 90%
06:00 +15°C° 0 mm 0 m/s 611 mmHg 86%
07:00 +17°C° 0 mm 0 m/s 612 mmHg 83%
08:00 +19°C° 0 mm 0 m/s 613 mmHg 79%
09:00 +22°C° 0.2 mm 1 m/s 613 mmHg 74%
10:00 +23°C° 0.2 mm 1 m/s 613 mmHg 69%
11:00 +24°C° 0.2 mm 1 m/s 613 mmHg 64%
12:00 +24°C° 0.5 mm 1 m/s 612 mmHg 64%
13:00 +24°C° 0.5 mm 1 m/s 612 mmHg 65%
14:00 +24°C° 0.5 mm 1 m/s 611 mmHg 65%
15:00 +24°C° 0.2 mm 1 m/s 611 mmHg 68%
16:00 +23°C° 0.2 mm 1 m/s 610 mmHg 71%
17:00 +23°C° 0.2 mm 1 m/s 609 mmHg 74%
18:00 +21°C° 0.3 mm 1 m/s 609 mmHg 78%
19:00 +20°C° 0.3 mm 1 m/s 609 mmHg 82%
20:00 +18°C° 0.3 mm 1 m/s 610 mmHg 86%
21:00 +18°C° 0.4 mm 1 m/s 610 mmHg 88%
22:00 +16°C° 0.4 mm 1 m/s 610 mmHg 89%
23:00 +16°C° 0.4 mm 1 m/s 610 mmHg 90%

6 Juillet, Lundi

Heure Température Précipitation Vent Pression Humidité
00:00 +15°C° 0.3 mm 1 m/s 610 mmHg 90%
01:00 +15°C° 0.3 mm 1 m/s 609 mmHg 90%
02:00 +15°C° 0.3 mm 1 m/s 609 mmHg 90%
03:00 +15°C° 0 mm 1 m/s 609 mmHg 90%
04:00 +14°C° 0 mm 1 m/s 609 mmHg 90%
05:00 +14°C° 0 mm 1 m/s 610 mmHg 90%
06:00 +16°C° 0 mm 1 m/s 610 mmHg 86%
07:00 +19°C° 0 mm 1 m/s 611 mmHg 81%
08:00 +20°C° 0 mm 1 m/s 612 mmHg 76%
09:00 +22°C° 0.1 mm 1 m/s 613 mmHg 71%
10:00 +23°C° 0.1 mm 1 m/s 613 mmHg 65%
11:00 +25°C° 0.1 mm 1 m/s 613 mmHg 60%
12:00 +25°C° 0.3 mm 1 m/s 612 mmHg 60%
13:00 +25°C° 0.3 mm 1 m/s 612 mmHg 61%
14:00 +25°C° 0.3 mm 2 m/s 611 mmHg 62%
15:00 +25°C° 0.2 mm 1 m/s 611 mmHg 65%
16:00 +24°C° 0.2 mm 1 m/s 611 mmHg 67%
17:00 +23°C° 0.2 mm 1 m/s 610 mmHg 70%
18:00 +22°C° 0.3 mm 1 m/s 610 mmHg 75%
19:00 +20°C° 0.3 mm 1 m/s 610 mmHg 80%
20:00 +19°C° 0.3 mm 1 m/s 610 mmHg 84%
21:00 +18°C° 0.7 mm 1 m/s 610 mmHg 87%
22:00 +16°C° 0.7 mm 1 m/s 610 mmHg 89%
23:00 +16°C° 0.7 mm 1 m/s 610 mmHg 92%

7 Juillet, Mardi

Heure Température Précipitation Vent Pression Humidité
00:00 +15°C° 1 mm 1 m/s 610 mmHg 92%
01:00 +15°C° 1 mm 1 m/s 610 mmHg 92%
02:00 +15°C° 1 mm 1 m/s 610 mmHg 92%
03:00 +15°C° 0 mm 1 m/s 610 mmHg 91%
04:00 +15°C° 0 mm 1 m/s 610 mmHg 90%
05:00 +15°C° 0 mm 1 m/s 610 mmHg 89%
06:00 +16°C° 0 mm 1 m/s 611 mmHg 84%
07:00 +19°C° 0 mm 1 m/s 612 mmHg 79%
08:00 +20°C° 0 mm 1 m/s 613 mmHg 74%
09:00 +22°C° 0.1 mm 1 m/s 613 mmHg 70%
10:00 +23°C° 0.1 mm 1 m/s 614 mmHg 65%
11:00 +24°C° 0.1 mm 2 m/s 614 mmHg 61%
12:00 +24°C° 0.3 mm 2 m/s 613 mmHg 62%
13:00 +24°C° 0.3 mm 1 m/s 613 mmHg 64%
14:00 +24°C° 0.3 mm 1 m/s 612 mmHg 65%
15:00 +24°C° 0.3 mm 1 m/s 612 mmHg 68%
16:00 +23°C° 0.3 mm 1 m/s 611 mmHg 70%
17:00 +22°C° 0.3 mm 1 m/s 611 mmHg 73%
18:00 +21°C° 0.2 mm 1 m/s 611 mmHg 77%
19:00 +20°C° 0.2 mm 1 m/s 611 mmHg 82%
20:00 +18°C° 0.2 mm 1 m/s 611 mmHg 86%
21:00 +18°C° 0.1 mm 1 m/s 611 mmHg 86%
22:00 +16°C° 0.1 mm 1 m/s 611 mmHg 86%
23:00 +16°C° 0.1 mm 1 m/s 611 mmHg 86%

8 Juillet, Mercredi

Heure Température Précipitation Vent Pression Humidité
00:00 +15°C° 0 mm 1 m/s 611 mmHg 85%
01:00 +15°C° 0 mm 1 m/s 611 mmHg 83%
02:00 +15°C° 0 mm 1 m/s 610 mmHg 82%
03:00 +14°C° 0 mm 1 m/s 610 mmHg 80%
04:00 +14°C° 0 mm 1 m/s 610 mmHg 78%
05:00 +14°C° 0 mm 1 m/s 610 mmHg 75%
06:00 +16°C° 0 mm 1 m/s 611 mmHg 73%
07:00 +18°C° 0 mm 1 m/s 612 mmHg 71%
08:00 +18°C° 0 mm 0 m/s 613 mmHg 68%
09:00 +21°C° 0.2 mm 1 m/s 613 mmHg 64%
10:00 +23°C° 0.2 mm 1 m/s 613 mmHg 61%
11:00 +24°C° 0.2 mm 1 m/s 614 mmHg 57%
12:00 +24°C° 0.3 mm 1 m/s 613 mmHg 57%
13:00 +24°C° 0.3 mm 1 m/s 613 mmHg 57%
14:00 +25°C° 0.3 mm 1 m/s 612 mmHg 58%
15:00 +24°C° 0.2 mm 1 m/s 612 mmHg 63%
16:00 +23°C° 0.2 mm 1 m/s 611 mmHg 68%
17:00 +22°C° 0.2 mm 1 m/s 611 mmHg 73%
18:00 +21°C° 0.3 mm 1 m/s 611 mmHg 75%
19:00 +19°C° 0.3 mm 1 m/s 611 mmHg 78%
20:00 +18°C° 0.3 mm 1 m/s 611 mmHg 80%
21:00 +18°C° 0.4 mm 1 m/s 611 mmHg 82%
22:00 +18°C° 0.4 mm 1 m/s 612 mmHg 84%
23:00 +16°C° 0.4 mm 1 m/s 612 mmHg 86%
Voir plus